Weather History for Ballenas Island, BC

Change the Weather History Date:

Sunday, November 18, 2012

  Actual Average Record
Temperature  
Mean Temperature 46 °F -  
Max Temperature 49 °F - - ()
Min Temperature 43 °F - - ()
Degree Days  
Heating Degree Days 19    
Moisture  
Dew Point 42 °F    
Average Humidity 85    
Maximum Humidity 91    
Minimum Humidity 78    
Precipitation  
Precipitation 0.31 in - - ()
Sea Level Pressure  
Sea Level Pressure 29.49 in    
Wind  
Wind Speed 19 mph ()    
Max Wind Speed 41 mph    
Max Gust Speed 48 mph    
T = Trace of Precipitation, MM = Missing Value Source: Averaged Metar Reports

Daily Weather History Graph

Daily Weather History Graph

Search for Another Location

Airport:

Trip Planner

Search our weather history database for the weather conditions in past years. The results will help you decide how hot, cold, wet, or windy it might be!

Date:

Astronomy

Nov. 18, 2012 Rise Set
Actual Time 7:32 AM PST 4:30 PM PST
Civil Twilight 6:57 AM PST 5:05 PM PST
Nautical Twilight 6:18 AM PST 5:44 PM PST
Astronomical Twilight 5:40 AM PST 6:22 PM PST
Moon 11:57 AM PST (11/18) 10:05 PM PST (11/18)
Length of Visible Light 10h 08m
Length of Day
8h 57m
Waxing Crescent, 31% of the Moon is Illuminated
Nov 18
Waxing Crescent
Nov 20
First Quarter
Nov 28
Full
Dec 6
Last Quarter
Dec 13
New

Hourly Weather History & Observations

Time (PST) Temp. Windchill Dew Point Humidity Pressure Visibility Wind Dir Wind Speed Gust Speed Precip Events Conditions
12:00 AM 43.9 °F 37.9 °F 39.7 °F 85% 29.54 in - SE 11.5 mph - 0.02 in   Unknown
1:00 AM 45.3 °F 38.4 °F 39.2 °F 79% 29.55 in - ESE 16.1 mph 21.9 mph N/A   Unknown
2:00 AM 44.1 °F 39.0 °F 39.7 °F 85% 29.57 in - SE 9.2 mph - 0.02 in   Unknown
3:00 AM 44.2 °F 36.2 °F 39.7 °F 84% 29.57 in - ESE 19.6 mph 25.3 mph 0.01 in   Unknown
4:00 AM 44 °F - 40 °F 81% 29.57 in - SE 15.0 mph - -  
4:00 AM 43.9 °F 36.8 °F 40.1 °F 87% 29.57 in - SE 15.0 mph 21.9 mph N/A   Unknown
5:00 AM 43.5 °F 36.4 °F 38.7 °F 83% 29.58 in - ESE 15.0 mph 21.9 mph N/A   Unknown
6:00 AM 43.9 °F 35.7 °F 41.4 °F 91% 29.59 in - ESE 19.6 mph - N/A   Unknown
7:00 AM 44.2 °F 37.0 °F 40.8 °F 88% 29.59 in - ESE 16.1 mph - N/A   Unknown
8:00 AM 45.0 °F 36.0 °F 40.8 °F 85% 29.57 in - ESE 25.3 mph 31.1 mph 0.01 in   Unknown
9:00 AM 45.5 °F 36.3 °F 41.7 °F 87% 29.58 in - ESE 27.6 mph - N/A   Unknown
10:00 AM 46 °F - 41 °F 78% 29.59 in - ESE 16.1 mph - -  
10:00 AM 45.5 °F 38.6 °F 41.4 °F 85% 29.59 in - ESE 16.1 mph 27.6 mph N/A   Unknown
11:00 AM 45.9 °F 37.2 °F 41.9 °F 86% 29.58 in - ESE 25.3 mph - N/A   Unknown
12:00 PM 46.8 °F - 42.6 °F 85% 29.56 in - ESE 26.5 mph - N/A   Unknown
1:00 PM 47.5 °F - 41.7 °F 80% 29.54 in - ESE 31.1 mph - N/A   Unknown
2:00 PM 47.5 °F - 41.9 °F 81% 29.51 in - ESE 31.1 mph - N/A   Unknown
3:00 PM 47.7 °F - 42.8 °F 83% 29.47 in - ESE 33.4 mph - N/A   Unknown
4:00 PM 47 °F - 44 °F 84% 29.43 in - ESE 35.7 mph - -  
4:00 PM 47.5 °F - 43.7 °F 87% 29.43 in - ESE 35.7 mph 42.6 mph 0.02 in   Unknown
5:00 PM 46.2 °F 35.6 °F 43.7 °F 91% 29.39 in - ESE 40.3 mph 48.3 mph 0.07 in   Unknown
6:00 PM 46.2 °F 35.5 °F 43.5 °F 90% 29.33 in - ESE 41.4 mph 47.2 mph 0.11 in   Unknown
7:00 PM 47.5 °F - 44.8 °F 90% 29.30 in - ESE 35.7 mph 44.9 mph 0.09 in   Unknown
8:00 PM 47.1 °F - 44.1 °F 89% 29.31 in - ESE 36.8 mph - 0.05 in   Unknown
9:00 PM 47.5 °F - 44.4 °F 89% 29.34 in - ESE 33.4 mph 39.1 mph 0.01 in   Unknown
10:00 PM 49 °F - 45 °F 79% 29.37 in - ESE 25.3 mph - -  
10:00 PM 48.6 °F - 44.6 °F 86% 29.37 in - ESE 25.3 mph - N/A   Unknown
11:00 PM 48.6 °F - 44.8 °F 87% 29.38 in - ESE 20.7 mph - N/A   Unknown